Location: St. Louis
(38.6270°N, 90.1994°W)
Time: 18:15:30
(UTC-06:00)

Tiros 1 - Pass Details

Date: 30 November 2021
Orbit: 629 x 664 km, 48.4° (Epoch: 26 January)

Event Time Altitude Azimuth Distance (km) Brightness Sun altitude
Rises 17:34:37 0° 182° (S) 2,902 10.8 -10.6°
Reaches altitude 10° 17:38:23 10° 150° (SSE) 2,006 9.6 -11.3°
Maximum altitude 17:40:04 12° 129° (SE) 1,888 9.2 -11.6°
Enters shadow 17:41:37 10° 109° (ESE) 1,996 9.2 -11.9°
